Kosmos-2043

operational
NORAD ID: 20237 Int'l Des: 1989-074 Owner: UNKS Country: SU
LEOCIRCULARPOLAR

About Kosmos-2043

Description loading...

Live Position

Loading 3D Globe...

Upcoming Passes

Altitude History

Altitude vs Time

uPlot chart will show altitude changes over time

Two-Line Element Set

1 20237U 89074F 26062.13554324 .00000049 00000-0 20875-3 0 9993
2 20237 82.5745 290.9935 0004664 99.5383 21.7049 12.63547933681507
Epoch: Mar 3, 2026 • Age: 8 hours

Current Status

Altitude 1411.4 km
Velocity 7.15 km/s
Sub-Earth Point 1.14°N, 5.06°E
Launch Date Sep 14, 1989
Age 36.4 years
Type other

Technical Details

Classification Payload
Mass 225.00 kg
Dry Mass 225.00 kg
Total Mass 225.00 kg
Length 1.60 m
Diameter 0.80 m
Span 7.00 m
Shape Cyl + Ant
Manufacturer NPOPM
Bus Type Strela-3
Phase Status In Orbit
Owner/State UNKS/SU

Large Constellations

Loading constellations...